Torna al catalogo

COSMOS 1579 FUEL CORE

AttivoLEO
NORAD 15330·DEBRIS·🇷🇺 Russia

Lanciato Jun 29, 1984 da Baikonur Cosmodrome

Loading…

Prossimi Passaggi (prossime 24 ore)

TLE

AggiornatoSource: Space-Track

Epoca: Sep 14, 2026, 21:18 UTC

1 15330U 84069D   26257.88792567 -.00000071  00000-0  14799-4 0  9996
2 15330  65.0560 313.6477 0050062 284.5602 256.2178 13.89920694144446

Traccia COSMOS 1579 FUEL CORE in tempo reale con AllMySat

Download on the App Store